Regional Weather Roundup
Issued by NWS Green Bay, WI

Home | Current Version | Previous Version | Text Only | Print | Product List | Glossary On
Versions: 1 2 3 4 5 6 7 8 9 10 11 12 13 14 15 16 17 18 19 20 21 22 23 24 25 26 27 28 29 30 31 32 33 34 35 36 37 38 39 40 41 42 43 44 45 46 47 48 49 50
000
ASUS43 KGRB 220559
RWRGRB

NORTH-CENTRAL AND NORTHEAST WISCONSIN REGIONAL WEATHER ROUNDUP
NATIONAL WEATHER SERVICE GREEN BAY WI
100 AM CDT FRI AUG 22 2014

WIZ005-009-010>012-018-019-220700-
NORTH CENTRAL WISCONSIN

CITY           SKY/WX    TMP DP  RH WIND       PRES   REMARKS
IRONWOOD       CLOUDY    66  66 100 SE7       29.90S
MANITOWISH WTR NOT AVBL
ARBOR VITAE    NOT AVBL
EAGLE RIVER    NOT AVBL
LAND O LAKES   NOT AVBL
RHINELANDER    CLOUDY    63  62  97 SE6       29.97S
PHILLIPS       CLOUDY    65  65  98 SE5       29.93R FOG
ANTIGO         NOT AVBL
TOMAHAWK       NOT AVBL
MERRILL        NOT AVBL
$$

WIZ013-073-220700-
NORTHEAST WISCONSIN

CITY           SKY/WX    TMP DP  RH WIND       PRES   REMARKS
IRON MOUNTAIN  LGT RAIN  64  62  93 SE8       29.97R
MARINETTE      MOCLDY    66  61  82 E7        29.94F
$$

WIZ017-030-035>037-045-220700-
CENTRAL WISCONSIN

CITY           SKY/WX    TMP DP  RH WIND       PRES   REMARKS
MEDFORD        NOT AVBL
WAUSAU         CLOUDY    65  65 100 E8        29.93S FOG
MOSINEE        NOT AVBL
MARSHFIELD     CLOUDY    72  70  93 E9        29.92S FOG
WISC RAPIDS    CLOUDY    71  69  93 SE6       29.93F
STEVENS POINT  NOT AVBL
WAUPACA        NOT AVBL
SHAWANO        CLOUDY    68  65  90 CALM      29.95F
CLINTONVILLE   NOT AVBL
$$

WIZ038-039-048-051-220700-
FOX VALLEY

CITY           SKY/WX    TMP DP  RH WIND       PRES   REMARKS
NWS GREEN BAY  CLOUDY    67  65  93 NE5       29.94F
APPLETON       NOT AVBL
OSHKOSH        CLOUDY    71  69  93 S5        29.92F FOG
FOND DU LAC    CLOUDY    70  68  93 S7        29.93F FOG
$$

WIZ022-050-052-220700-
EAST CENTRAL WISCONSIN

CITY           SKY/WX    TMP DP  RH WIND       PRES   REMARKS
STURGEON BAY   CLOUDY    64  63  94 SE3       29.96F
MANITOWOC      NOT AVBL
SHEBOYGAN      FOG       67  66  97 CALM      29.94F VSB 1/4
$$

LMZ563-521-522-541>543-220700-
LAKESHORE

STATION/POSITION TIME  TEMP    WIND        PRES    VSBY  WAVE
                       AIR SEA DIR/SP/G                  HT/PER
                 (UTC) (F)     (DEG/KT/KT) (MB)    (MI)  (FT/S)
SHEBOYGAN LKSHOR 0500   66 63  150/  3/  4 1014.7R
KEWAUNEE LKSHORE 0500   66     180/  2/  4 1013.7R
ALGOMA MARINA    0500          120/  5/  6   N/A
NORTHPORT PIER   0500   66     140/  2/  3 1014.9R
N MID LAKE BUOY  0500   66 65  110/  6/  8 1014.2F         0
S GREEN BAY BUOY 0500   67     VRB  6      1015.3R
SISTER BAY LKSHO 0500   66     130/  6/  8   N/A
CHAMBERS ISLAND  0500   67     100/  4/  6 1014.9S
MENOMINEE LKSHOR 0500   68      90/  5/  6 1015.0R
$$



USA.gov is the U.S. government's official web portal to all federal, state and local government web resources and services.